Home   Weather   Westerland   Past weeks

Flag for Germany Past Weather in Westerland, Schleswig-Holstein, Germany — Yesterday and Last 2 Weeks

Now
60 °F

Clear.


Feels Like: 60 °F
Forecast: 53 / 68 °F
Wind: 1 mph from North

Location: List / Sylt

Current Time: Sep 27, 2016 at 12:39:28 AM

Latest Report: Sep 27, 2016 at 12:00 AM


Visibility: 44 mi

Pressure: 30.26 "Hg

Humidity: 78%

Dew Point: 53 °F

Location of WesterlandLocation

Past Weather in Westerland — Graph

°F

Westerland Temperature Yesterday

Maximum temperature yesterday: 67 °F (at 3:00 PM)
Minimum temperature yesterday: 59 °F (at 9:00 PM)
Average temperature yesterday: 63 °F

High & Low Weather Summary for the Past Weeks

 TemperatureHumidityPressure
High79 °F (Sep 13, 1:00 PM)97% (Sep 17, 1:00 AM)30.25 "Hg (Sep 17, 1:00 AM)
Low56 °F (Sep 21, 4:00 AM)47% (Sep 20, 4:00 PM)29.88 "Hg (Sep 16, 3:00 PM)
Average64 °F77%30.09 "Hg
* Reported Sep 11 10:00 PM — Sep 26 10:00 PM, Westerland, Weather by CustomWeather, © 2016

Note: Actual official high and low records may vary slightly from our data, if they occured in-between our weather recording intervals... More about our weather records

Advertising

Westerland Weather History for the Previous 24 Hours

Scroll right to see more
 ConditionsComfort  
Time TempWeatherWind HumidityBarometerVisibility
10:00 PM
Mon, Sep 26
61 °FPassing clouds.2 mph68%30.25 "Hg43 mi
9:00 PM59 °FPassing clouds.2 mph70%30.25 "Hg43 mi
7:00 PM61 °FHaze.2 mph67%30.24 "Hg43 mi
6:00 PM64 °FPassing clouds.2 mph62%30.22 "Hg28 mi
4:00 PM64 °FPartly sunny.3 mph63%30.22 "Hg37 mi
3:00 PM67 °FScattered clouds.3 mph58%30.22 "Hg22 mi
1:00 PM66 °FSunny.5 mph56%30.21 "Hg8 mi
12:00 PM65 °FSunny.3 mph59%30.20 "Hg19 mi
10:00 AM64 °FScattered clouds.3 mph63%30.17 "Hg25 mi
9:00 AM62 °FPassing clouds.5 mph66%30.17 "Hg16 mi
7:00 AM62 °FOvercast.6 mph73%30.13 "Hg28 mi
6:00 AM62 °FOvercast.6 mph77%30.13 "Hg28 mi
4:00 AM62 °FOvercast.6 mph78%30.10 "Hg28 mi
3:00 AM61 °FClear.6 mph78%30.10 "Hg31 mi
1:00 AM63 °FOvercast.8 mph81%30.07 "Hg28 mi
12:00 AM63 °FPassing clouds.5 mph91%30.06 "Hg8 mi
Weather by CustomWeather, © 2016

See weather overviewHow to use our weather pages